Regional Weather Roundup
Issued by NWS Austin/San Antonio, TX

Home | Current Version | Previous Version | Text Only | Print | Product List | Glossary On
Versions: 1 2 3 4 5 6 7 8 9 10 11 12 13 14 15 16 17 18 19 20 21 22 23 24 25 26 27 28 29 30 31 32 33 34 35 36 37 38 39 40 41 42 43 44 45 46 47 48 49 50
000
ASUS44 KEWX 131802
RWREWX
SOUTH TEXAS REGIONAL WEATHER ROUNDUP
NATIONAL WEATHER SERVICE AUSTIN/SAN ANTONIO TX
100 PM CDT SUN OCT 13 2019

NOTE: "FAIR" INDICATED FEW OR NO CLOUDS BELOW 12,000 FEET WITH NO
SIGNIFICANT WEATHER AND/OR OBSTRUCTIONS TO VISIBILITY.

* - THESE STATIONS ARE NOT NWS OR FAA STATIONS...AND ARE NOT SUBJECT
    TO NWS AND FAA QUALITY CONTROL.

TXZ171-172-183>190-131900-
TEXAS HILL COUNTRY AND EDWARDS PLATEAU

CITY           SKY/WX    TMP DP  RH WIND       PRES   REMARKS
JUNCTION       SUNNY     71  40  32 S8        30.04F
6HR MIN TEMP:  50; 6HR MAX TEMP:  72;

*LLANO         SUNNY     75  41  29 S8        30.07F
BURNET         PTSUNNY   70  45  40 SE6       30.05F
6HR MIN TEMP:  53; 6HR MAX TEMP:  70;

*HORSESHOE BAY SUNNY     77  45  31 S6        30.03F
*KERRVILLE     SUNNY     74  37  26 SW5       30.05F
6HR MIN TEMP:  49; 6HR MAX TEMP:  74;

*FREDERICKSBRG MOSUNNY   76  44  31 SW9       30.04F
6HR MIN TEMP:  50; 6HR MAX TEMP:  76;

*ROCKSPRINGS   MOSUNNY   68  37  32 SW9       30.11S
*BOERNE        PTSUNNY   73  41  31 CALM      30.06F
*CASTROVILLE   CLOUDY    77  38  25 S6        30.05F
HONDO          CLOUDY    77  37  23 S5        30.04F
6HR MIN TEMP:  61; 6HR MAX TEMP:  77;

*UVALDE        SUNNY     73  35  24 SW3       30.05F
6HR MIN TEMP:  56; 6HR MAX TEMP:  74;

DEL RIO        SUNNY     72  38  29 SE6       30.03F
6HR MIN TEMP:  58; 6HR MAX TEMP:  72;

LAUGHLIN AFB   NOT AVBL
SPOFFORD       MOSUNNY   72  35  25 CALM      29.98F
6HR MIN TEMP:  56; 6HR MAX TEMP:  72; 6HR PCP: TRACE;

*EAGLE PASS    SUNNY     75  36  23 VRB6      30.03F
CARRIZO SPRGS  CLOUDY    77  41  27 CALM      30.02F
*FAITH RANCH   CLOUDY    77  39  25 E7        30.03F
$$

TXZ173-191>194-202-209-217>225-228-131900-
CENTRAL AND SOUTH CENTRAL TEXAS

CITY           SKY/WX    TMP DP  RH WIND       PRES   REMARKS
GEORGETOWN     MOSUNNY   71  46  40 VRB5      30.05F
6HR MIN TEMP:  56; 6HR MAX TEMP:  71;

AUSTIN/BERGSTM PTSUNNY   73  42  32 VRB3      30.04F
6HR MIN TEMP:  59; 6HR MAX TEMP:  73;

AUSTIN/MABRY   MOSUNNY   72  42  34 VRB5      30.06F
6HR MIN TEMP:  56; 6HR MAX TEMP:  73; 6HR PCP:  0.01;

*AUSTIN/EXEC   MOSUNNY   70  41  35 CALM      30.06F
*LAGO VISTA    PTSUNNY   71  46  41 SE5       30.05F
6HR MIN TEMP:  54; 6HR MAX TEMP:  71;

SAN MARCOS     PTSUNNY   72  42  34 S7        30.05F
6HR MIN TEMP:  60; 6HR MAX TEMP:  72;

NEW BRAUNFELS  PTSUNNY   73  42  32 CALM      30.04F
6HR MIN TEMP:  61; 6HR MAX TEMP:  74;

RANDOLPH AFB   PTSUNNY   74  44  34 SE3       30.04F
6HR MIN TEMP:  61; 6HR MAX TEMP:  74;

SEGUIN         CLOUDY    73  42  32 CALM      30.08F
6HR MIN TEMP:  59; 6HR MAX TEMP:  73;

KELLY FIELD    CLOUDY    75  42  30 CALM      30.03S
6HR MIN TEMP:  62; 6HR MAX TEMP:  76;

SAN ANTONIO    PTSUNNY   72  41  32 VRB3      30.05F
6HR MIN TEMP:  61; 6HR MAX TEMP:  74;

STINSON FIELD  CLOUDY    74  42  31 SE3       30.03F
6HR MIN TEMP:  62; 6HR MAX TEMP:  74;

PLEASANTON     CLOUDY    74  46  37 CALM      30.05F
6HR MIN TEMP:  61; 6HR MAX TEMP:  74;

*LA GRANGE     CLOUDY    74  50  41 E3        30.03F
6HR MIN TEMP:  59; 6HR MAX TEMP:  74;

*GIDDINGS      PTSUNNY   74  44  34 CALM      30.06F
6HR MIN TEMP:  60; 6HR MAX TEMP:  74;

*GONZALES      MOSUNNY   77  49  37 CALM      30.03F
6HR MIN TEMP:  59; 6HR MAX TEMP:  77;

$$

TXZ163>164-176>182-195>201-210>213-226-227-235-131900-
SOUTHEAST TEXAS

CITY           SKY/WX    TMP DP  RH WIND       PRES   REMARKS
COLLEGE STN    PTSUNNY   71  44  37 SE3       30.06F
6HR MIN TEMP:  59; 6HR MAX TEMP:  71; 6HR PCP: TRACE;

*BRYAN         PTSUNNY   69  47  44 CALM      30.07F
6HR MIN TEMP:  58; 6HR MAX TEMP:  70;

*CALDWELL      CLOUDY    71  43  37 SE5       30.06F
6HR MIN TEMP:  56; 6HR MAX TEMP:  71;

*CROCKETT      MOSUNNY   68  45  42 CALM      30.10F
*BRENHAM       CLOUDY    73  47  39 CALM      30.05F
6HR MIN TEMP:  58; 6HR MAX TEMP:  73;

HUNTSVILLE     PTSUNNY   71  44  37 CALM      30.06F
6HR MIN TEMP:  56; 6HR MAX TEMP:  72;

CONROE         PTSUNNY   73  52  47 E5        30.06F
6HR MIN TEMP:  57; 6HR MAX TEMP:  73;

HOUSTON BUSH   PTSUNNY   75  52  44 VRB3      30.04F
6HR MIN TEMP:  58; 6HR MAX TEMP:  75;

HOUSTON HOBBY  PTSUNNY   80  57  45 VRB7      30.03F
6HR MIN TEMP:  61; 6HR MAX TEMP:  80;

*HOUSTON SW AP FAIR      78  61  56 E3        30.04F
6HR MIN TEMP:  57; 6HR MAX TEMP:  78;

PEARLAND       CLOUDY    77  58  51 SE7       30.05F
6HR MIN TEMP:  61; 6HR MAX TEMP:  78;

HOUSTON HOOKS  CLOUDY    73  48  41 CALM      30.05F
6HR MIN TEMP:  58; 6HR MAX TEMP:  74;

ELLINGTON FLD  NOT AVBL
SUGAR LAND     CLOUDY    77  59  53 N6        30.04F
6HR MIN TEMP:  60; 6HR MAX TEMP:  78;

*HOUSTON EXEC  FAIR      75  57  53 CALM      30.06F
*CLEVELAND MUN CLOUDY    69  56  62 CALM      30.07F
*WHARTON       CLOUDY    78  59  51 E5        30.03F
6HR MIN TEMP:  56; 6HR MAX TEMP:  78;

*COLUMBUS      CLOUDY    76  42  28 E3        30.05F
6HR MIN TEMP:  56; 6HR MAX TEMP:  76;

*EAGLE LAKE    CLOUDY    77  56  48 N3        30.04F
6HR MIN TEMP:  60; 6HR MAX TEMP:  77;

$$

TXZ214>216-236>238-131900-
THE UPPER TEXAS COAST

CITY           SKY/WX    TMP DP  RH WIND       PRES   REMARKS
*ORANGE        CLOUDY    76  62  60 N3        30.06F
6HR MIN TEMP:  59; 6HR MAX TEMP:  78;

PORT ARTHUR    CLOUDY    77  58  51 NE6       30.03F
6HR MIN TEMP:  60; 6HR MAX TEMP:  77;

GALVESTON      CLOUDY    74  59  59 N12       30.04F
6HR MIN TEMP:  65; 6HR MAX TEMP:  74;

ANGLETON       CLOUDY    76  61  59 NE6       30.03F
6HR MIN TEMP:  59; 6HR MAX TEMP:  77;

*BAY CITY      PTSUNNY   80  64  58 E6        30.03F
PALACIOS       CLOUDY    79  61  53 NE13      30.01F
6HR MIN TEMP:  61; 6HR MAX TEMP:  79;

$$

TXZ229>234-239>247-131900-
TEXAS COASTAL BEND AND RIO GRANDE PLAINS

CITY           SKY/WX    TMP DP  RH WIND       PRES   REMARKS
VICTORIA       CLOUDY    77  57  50 N5        30.03F
6HR MIN TEMP:  58; 6HR MAX TEMP:  77;

*BEEVILLE      CLOUDY    80  55  41 NE6       30.01F
ROCKPORT       CLOUDY    81  60  48 NE9       30.00F
6HR MIN TEMP:  66; 6HR MAX TEMP:  81;

*PORT ARANSAS  CLOUDY    74  63  67 N13       30.01F
6HR MIN TEMP:  66; 6HR MAX TEMP:  75;

*PORT LAVACA   CLOUDY    79  60  53 E8        30.02F
6HR MIN TEMP:  63; 6HR MAX TEMP:  79;

*INGLESIDE     CLOUDY    78  60  54 NE13      30.00F
CORPUS CHRISTI CLOUDY    78  59  51 NE13      30.00F
6HR MIN TEMP:  65; 6HR MAX TEMP:  78;

CORPUS NAS     CLOUDY    73  65  75 NE18      29.99F
6HR MIN TEMP:  67; 6HR MAX TEMP:  75;

*ROBSTOWN      CLOUDY    75  55  49 NE7       30.02F
ALICE          CLOUDY    78  52  40 NE10      30.00F
6HR MIN TEMP:  67; 6HR MAX TEMP:  78;

KINGSVILLE NAS CLOUDY    77  57  50 N8        30.00F
6HR MIN TEMP:  67; 6HR MAX TEMP:  77;

COTULLA        CLOUDY    75  41  29 CALM      30.03F
6HR MIN TEMP:  65; 6HR MAX TEMP:  76;

LAREDO         CLOUDY    76  53  44 VRB3      30.01F
6HR MIN TEMP:  68; 6HR MAX TEMP:  76;

$$

TXZ248>255-131900-
DEEP SOUTH TEXAS

CITY           SKY/WX    TMP DP  RH WIND       PRES   REMARKS
BROWNSVILLE    FAIR      81  61  50 NW10      29.95F
6HR MIN T


USA.gov is the U.S. government's official web portal to all federal, state and local government web resources and services.